Flood From: 18-02-2018 10:00 Until: 19-02-2018 06:00 warning for: Flood Level: Yellow info button

Although rather usual in this region, locally or potentially dangerous phenomena are expected. (such as local winds, summer thunderstorms, rising streams or high waves) Be aware and pay attention to the latest weather updates, especially if you carry out activities exposed to weather or close to a stream or shoreline. 


Meteo18 Weather Cam more information Meteo18 Weather Cam


Thunder radar more information blitzortung!


Rain radar more information rain snow radar


Visit our other weather sites:

Template documentation
and downloads

And another site



Weather Underground History page Text

Daily Summary for November 9, 2016 Units:  Metric    English   Both
« Previous Day
Next Day »
Daily Weekly Monthly Yearly Custom
  High: Low: Average:
Temperature: -17.8 °C -15.9 °C -14.2 °C
Dew Point: -17.8 °C -16.3 °C -15.1 °C
Humidity: Humidity % 76 % 90 %
Wind Speed: 0 km/h 0 km/h 15.6 km/h
Wind Gust: 0 km/h - -
Wind:- - SW
Pressure: 0 hPa 33856.6 hPa -
Precipitation: 393.7 mm    
Historical Graphs
 
 
Tabular Data for November 9, 2016
Time Temperature Dew Point Pressure Wind Wind Speed Wind Gust Humidity Rainfall Rate (Hourly)
-17.8 °C -17.8 °C 0 hPa Calm     Humidity % 0 mm
00:02 -15.9 °C -16.3 °C 34246 hPa SSW 2.6 km/h 7.7 km/h 96 % 0 mm
00:12 -15.9 °C -16.2 °C 34235.8 hPa SSW 2.6 km/h 5.1 km/h 96 % 0 mm
00:17 -15.8 °C -16.2 °C 34235.8 hPa Calm   7.7 km/h 96 % 0 mm
00:22 -15.8 °C -16.1 °C 34222.3 hPa SSW 5.1 km/h 7.7 km/h 96 % 0 mm
00:27 -15.8 °C -16.1 °C 34222.3 hPa SSE 2.6 km/h 10.3 km/h 96 % 0 mm
00:32 -15.8 °C -16.1 °C 34212.1 hPa South 2.6 km/h 10.3 km/h 96 % 0 mm
00:37 -15.8 °C -16.1 °C 34212.1 hPa Calm   10.3 km/h 96 % 0 mm
00:42 -15.8 °C -16.1 °C 34198.6 hPa Calm   10.3 km/h 96 % 0 mm
00:47 -15.8 °C -16.1 °C 34198.6 hPa Calm   10.3 km/h 96 % 0 mm
00:52 -15.8 °C -16.1 °C 34198.6 hPa South 2.6 km/h 7.7 km/h 96 % 0 mm
00:57 -15.7 °C -16.1 °C 34188.4 hPa SSE 2.6 km/h 7.7 km/h 96 % 0 mm
01:02 -15.7 °C -16.1 °C 34188.4 hPa Calm   10.3 km/h 95 % 0 mm
01:07 -15.7 °C -16.1 °C 34188.4 hPa SSE 2.6 km/h 10.3 km/h 95 % 0 mm
01:12 -15.7 °C -16.1 °C 34188.4 hPa Calm   10.3 km/h 95 % 0 mm
01:17 -15.7 °C -16.1 °C 34178.3 hPa Calm   7.7 km/h 95 % 0 mm
01:22 -15.7 °C -16.1 °C 34178.3 hPa SSW 2.6 km/h 2.6 km/h 95 % 0 mm
01:27 -15.7 °C -16.1 °C 34178.3 hPa SSE 2.6 km/h 5.1 km/h 95 % 0 mm
01:32 -15.7 °C -16.1 °C 34178.3 hPa SSW 5.1 km/h 5.1 km/h 95 % 0 mm
01:37 -15.7 °C -16.1 °C 34164.7 hPa SSW 2.6 km/h 10.3 km/h 95 % 0 mm
01:42 -15.7 °C -16.1 °C 34164.7 hPa Calm   10.3 km/h 95 % 0 mm
01:47 -15.7 °C -16.1 °C 34154.6 hPa Calm   10.3 km/h 95 % 0 mm
01:52 -15.7 °C -16.2 °C 34154.6 hPa SSW 2.6 km/h 7.7 km/h 94 % 0 mm
01:57 -15.7 °C -16.2 °C 34144.4 hPa SSW 2.6 km/h 7.7 km/h 94 % 0 mm
02:02 -15.7 °C -16.2 °C 34154.6 hPa SSE 5.1 km/h 7.7 km/h 94 % 0 mm
02:12 -15.7 °C -16.2 °C 34144.4 hPa South 2.6 km/h 10.3 km/h 94 % 0 mm
02:17 -15.7 °C -16.2 °C 34144.4 hPa SSE 2.6 km/h 10.3 km/h 94 % 0 mm
02:22 -15.7 °C -16.2 °C 34130.9 hPa SSW 2.6 km/h 10.3 km/h 94 % 0 mm
02:27 -15.7 °C -16.2 °C 34130.9 hPa Calm   10.3 km/h 94 % 0 mm
02:32 -15.7 °C -16.2 °C 34130.9 hPa SSE 2.6 km/h 7.7 km/h 94 % 7.62 mm
02:37 -15.7 °C -16.1 °C 34120.7 hPa South 5.1 km/h 7.7 km/h 95 % 7.62 mm
02:42 -15.7 °C -16.1 °C 34120.7 hPa Calm   7.7 km/h 95 % 7.62 mm
02:47 -15.7 °C -16.1 °C 34107.2 hPa SSE 5.1 km/h 12.9 km/h 95 % 7.62 mm
02:52 -15.7 °C -16.1 °C 34107.2 hPa South 2.6 km/h 12.9 km/h 95 % 12.7 mm
02:57 -15.7 °C -16.1 °C 34097 hPa SE 2.6 km/h 12.9 km/h 95 % 12.7 mm
03:02 -15.6 °C -16 °C 34097 hPa SW 2.6 km/h 12.9 km/h 95 % 12.7 mm
03:07 -15.6 °C -16 °C 34086.9 hPa SE 2.6 km/h 12.9 km/h 95 % 12.7 mm
03:12 -15.6 °C -16 °C 34086.9 hPa SSW 2.6 km/h 12.9 km/h 95 % 12.7 mm
03:17 -15.6 °C -16 °C 34086.9 hPa SSE 5.1 km/h 15.6 km/h 95 % 12.7 mm
03:22 -15.6 °C -15.9 °C 34073.3 hPa SSE 2.6 km/h 18.2 km/h 95 % 20.32 mm
03:32 -15.6 °C -15.9 °C 34073.3 hPa SSE 5.1 km/h 20.8 km/h 95 % 12.7 mm
03:37 -15.6 °C -15.9 °C 34063.2 hPa SE 5.1 km/h 20.8 km/h 95 % 12.7 mm
03:42 -15.6 °C -15.9 °C 34063.2 hPa SE 7.7 km/h 15.6 km/h 95 % 12.7 mm
03:47 -15.6 °C -16 °C 34063.2 hPa SSE 5.1 km/h 15.6 km/h 95 % 20.32 mm
03:52 -15.6 °C -16 °C 34049.6 hPa Calm   20.8 km/h 95 % 12.7 mm
03:57 -15.6 °C -16 °C 34049.6 hPa South 7.7 km/h 20.8 km/h 95 % 20.32 mm
04:02 -15.6 °C -16 °C 34049.6 hPa SSE 5.1 km/h 20.8 km/h 95 % 20.32 mm
04:07 -15.6 °C -16 °C 34039.5 hPa SSW 5.1 km/h 20.8 km/h 95 % 20.32 mm
04:12 -15.6 °C -15.9 °C 34039.5 hPa South 7.7 km/h 20.8 km/h 96 % 20.32 mm
04:17 -15.6 °C -15.9 °C 34039.5 hPa SW 2.6 km/h 23.3 km/h 96 % 25.4 mm
04:22 -15.6 °C -15.9 °C 34029.3 hPa SSW 2.6 km/h 23.3 km/h 96 % 20.32 mm
04:27 -15.6 °C -15.9 °C 34029.3 hPa SSE 10.3 km/h 23.3 km/h 96 % 25.4 mm
04:32 -15.6 °C -15.9 °C 34029.3 hPa SE 5.1 km/h 18.2 km/h 96 % 25.4 mm
04:42 -15.6 °C -15.9 °C 34015.8 hPa SSE 10.3 km/h 31.1 km/h 96 % 25.4 mm
04:47 -15.6 °C -15.9 °C 34015.8 hPa SSE 7.7 km/h 31.1 km/h 96 % 33.02 mm
04:52 -15.6 °C -15.9 °C 34015.8 hPa SE 15.6 km/h 31.1 km/h 96 % 33.02 mm
04:57 -15.5 °C -15.8 °C 34005.6 hPa East 5.1 km/h 20.8 km/h 96 % 33.02 mm
05:02 -15.5 °C -15.8 °C 34005.6 hPa SW 12.9 km/h 20.8 km/h 96 % 25.4 mm
05:12 -15.6 °C -15.9 °C 33992.1 hPa ESE 7.7 km/h 20.8 km/h 96 % 33.02 mm
05:17 -15.6 °C -15.9 °C 33992.1 hPa SE 2.6 km/h 20.8 km/h 96 % 33.02 mm
05:22 -15.6 °C -15.9 °C 33992.1 hPa South 2.6 km/h 25.9 km/h 96 % 25.4 mm
05:32 -15.6 °C -15.9 °C 33992.1 hPa WSW 2.6 km/h 25.9 km/h 96 % 33.02 mm
05:37 -15.6 °C -15.9 °C 33992.1 hPa SW 7.7 km/h 20.8 km/h 96 % 33.02 mm
05:42 -15.6 °C -15.9 °C 33981.9 hPa South 7.7 km/h 23.3 km/h 96 % 33.02 mm
05:47 -15.5 °C -15.8 °C 33981.9 hPa South 10.3 km/h 23.3 km/h 96 % 33.02 mm
05:52 -15.5 °C -15.8 °C 33971.7 hPa SE 5.1 km/h 23.3 km/h 96 % 38.1 mm
05:57 -15.4 °C -15.8 °C 33971.7 hPa ESE 15.6 km/h 20.8 km/h 96 % 38.1 mm
06:02 -15.4 °C -15.8 °C 33971.7 hPa SW 10.3 km/h 20.8 km/h 96 % 38.1 mm
06:07 -15.4 °C -15.8 °C 33958.2 hPa SE 5.1 km/h 31.1 km/h 96 % 45.72 mm
06:12 -15.4 °C -15.8 °C 33958.2 hPa South 10.3 km/h 31.1 km/h 96 % 50.8 mm
06:17 -15.4 °C -15.8 °C 33958.2 hPa SSE 10.3 km/h 31.1 km/h 96 % 50.8 mm
06:22 -15.4 °C -15.8 °C 33948 hPa SSE 5.1 km/h 31.1 km/h 96 % 58.42 mm
06:27 -15.4 °C -15.7 °C 33948 hPa SSE 12.9 km/h 28.5 km/h 96 % 50.8 mm
06:32 -15.4 °C -15.7 °C 33937.9 hPa SW 5.1 km/h 23.3 km/h 96 % 58.42 mm
06:42 -15.4 °C -15.7 °C 33937.9 hPa SE 15.6 km/h 28.5 km/h 96 % 58.42 mm
06:52 -15.4 °C -15.7 °C 33924.3 hPa SSW 15.6 km/h 33.6 km/h 96 % 58.42 mm
06:57 -15.4 °C -15.7 °C 33924.3 hPa South 20.8 km/h 33.6 km/h 96 % 58.42 mm
07:02 -15.4 °C -15.7 °C 33924.3 hPa SE 5.1 km/h 33.6 km/h 96 % 58.42 mm
07:12 -15.4 °C -15.7 °C 33914.2 hPa NE 10.3 km/h 33.6 km/h 96 % 83.82 mm
07:17 -15.4 °C -15.7 °C 33900.6 hPa SSE 10.3 km/h 33.6 km/h 96 % 76.2 mm
07:22 -15.3 °C -15.7 °C 33900.6 hPa East 12.9 km/h 33.6 km/h 96 % 71.12 mm
07:32 -15.3 °C -15.7 °C 33900.6 hPa South 7.7 km/h 28.5 km/h 96 % 63.5 mm
07:37 -15.3 °C -15.7 °C 33900.6 hPa ESE 7.7 km/h 41.4 km/h 96 % 58.42 mm
07:47 -15.3 °C -15.7 °C 33890.5 hPa SE 7.7 km/h 28.5 km/h 96 % 58.42 mm
07:57 -15.3 °C -15.6 °C 33890.5 hPa SSE 20.8 km/h 44.1 km/h 96 % 45.72 mm
08:07 -15.3 °C -15.7 °C 33880.3 hPa ESE 7.7 km/h 44.1 km/h 95 % 38.1 mm
08:12 -15.3 °C -15.7 °C 33880.3 hPa SSE 7.7 km/h 44.1 km/h 95 % 38.1 mm
08:17 -15.3 °C -15.7 °C 33880.3 hPa SW 25.9 km/h 41.4 km/h 96 % 38.1 mm
08:22 -15.2 °C -15.6 °C 33880.3 hPa South 2.6 km/h 41.4 km/h 96 % 38.1 mm
08:27 -15.2 °C -15.6 °C 33866.8 hPa East 18.2 km/h 44.1 km/h 96 % 45.72 mm
08:32 -15.2 °C -15.6 °C 33866.8 hPa ESE 33.6 km/h 44.1 km/h 96 % 58.42 mm
08:37 -15.2 °C -15.6 °C 33866.8 hPa SSE 20.8 km/h 38.8 km/h 96 % 58.42 mm
08:42 -15.2 °C -15.6 °C 33866.8 hPa SE 18.2 km/h 51.8 km/h 96 % 58.42 mm
08:47 -15.2 °C -15.6 °C 33866.8 hPa SSE 10.3 km/h 51.8 km/h 96 % 63.5 mm
08:52 -15.2 °C -15.5 °C 33866.8 hPa South 5.1 km/h 44.1 km/h 96 % 71.12 mm
08:57 -15.2 °C -15.5 °C 33856.6 hPa SSE 10.3 km/h 44.1 km/h 96 % 71.12 mm
09:02 -15.2 °C -15.5 °C 33856.6 hPa SE 2.6 km/h 44.1 km/h 96 % 58.42 mm
09:07 -15.1 °C -15.4 °C 33856.6 hPa SSE 20.8 km/h 38.8 km/h 96 % 58.42 mm
09:12 -15.1 °C -15.4 °C 33856.6 hPa SE 12.9 km/h 38.8 km/h 96 % 50.8 mm
09:17 -15.1 °C -15.4 °C 33856.6 hPa South 7.7 km/h 38.8 km/h 96 % 45.72 mm
09:22 -15.1 °C -15.4 °C 33856.6 hPa SSE 2.6 km/h 38.8 km/h 96 % 38.1 mm
09:32 -15.1 °C -15.4 °C 33856.6 hPa ESE 7.7 km/h 36.2 km/h 96 % 33.02 mm
09:37 -15.1 °C -15.4 °C 33866.8 hPa ESE 12.9 km/h 25.9 km/h 96 % 33.02 mm
09:42 -15.1 °C -15.3 °C 33866.8 hPa Calm   25.9 km/h 97 % 38.1 mm
09:47 -14.9 °C -15.2 °C 33866.8 hPa SE 5.1 km/h 18.2 km/h 97 % 33.02 mm
09:52 -14.9 °C -15.2 °C 33880.3 hPa East 2.6 km/h 18.2 km/h 97 % 38.1 mm
09:57 -14.9 °C -15.1 °C 33880.3 hPa SW 2.6 km/h 18.2 km/h 97 % 38.1 mm
10:02 -14.8 °C -15.1 °C 33890.5 hPa NW 2.6 km/h 18.2 km/h 97 % 38.1 mm
10:12 -14.8 °C -15.1 °C 33890.5 hPa ENE 5.1 km/h 10.3 km/h 97 % 50.8 mm
10:17 -14.8 °C -15 °C 33900.6 hPa Calm   10.3 km/h 97 % 50.8 mm
10:22 -14.7 °C -14.9 °C 33914.2 hPa WNW 2.6 km/h 7.7 km/h 97 % 58.42 mm
10:27 -14.7 °C -14.9 °C 33914.2 hPa WNW 2.6 km/h 7.7 km/h 97 % 58.42 mm
10:32 -14.6 °C -14.8 °C 33914.2 hPa NW 5.1 km/h 7.7 km/h 97 % 58.42 mm
10:42 -14.6 °C -14.8 °C 33937.9 hPa WNW 5.1 km/h 7.7 km/h 97 % 58.42 mm
10:47 -14.6 °C -14.8 °C 33937.9 hPa Calm   7.7 km/h 97 % 50.8 mm
10:52 -14.6 °C -14.8 °C 33937.9 hPa West 2.6 km/h 5.1 km/h 97 % 50.8 mm
11:02 -14.1 °C -14.2 °C 33948 hPa West 23.3 km/h 33.6 km/h 98 % 45.72 mm
11:07 -13.8 °C -14.1 °C 33948 hPa NW 7.7 km/h 41.4 km/h 97 % 50.8 mm
11:12 -13.8 °C -14.1 °C 33958.2 hPa West 20.8 km/h 41.4 km/h 96 % 50.8 mm
11:17 -13.7 °C -14.1 °C 33958.2 hPa WNW 23.3 km/h 41.4 km/h 95 % 45.72 mm
11:22 -13.6 °C -13.9 °C 33958.2 hPa WNW 25.9 km/h 46.7 km/h 95 % 38.1 mm
11:27 -13.5 °C -13.9 °C 33958.2 hPa West 23.3 km/h 46.7 km/h 95 % 38.1 mm
11:32 -13.4 °C -13.9 °C 33958.2 hPa West 38.8 km/h 54.4 km/h 95 % 33.02 mm
11:37 -13.3 °C -13.8 °C 33971.7 hPa WSW 31.1 km/h 64.7 km/h 94 % 33.02 mm
11:42 -13.3 °C -13.9 °C 33971.7 hPa NNW 59.5 km/h 64.7 km/h 93 % 25.4 mm
11:47 -13.2 °C -13.8 °C 33981.9 hPa WNW 33.6 km/h 64.7 km/h 93 % 25.4 mm
11:52 -13.2 °C -13.8 °C 33981.9 hPa WNW 46.7 km/h 64.7 km/h 93 % 20.32 mm
11:57 -13.2 °C -13.8 °C 33992.1 hPa WNW 31.1 km/h 64.7 km/h 93 % 12.7 mm
12:02 -13.2 °C -13.9 °C 33992.1 hPa WNW 46.7 km/h 57 km/h 92 % 12.7 mm
12:07 -13.2 °C -13.9 °C 33992.1 hPa West 23.3 km/h 62.1 km/h 91 % 12.7 mm
12:12 -13.1 °C -13.9 °C 33992.1 hPa WNW 33.6 km/h 67.3 km/h 90 % 7.62 mm
12:17 -12.9 °C -13.8 °C 33992.1 hPa WSW 25.9 km/h 67.3 km/h 90 % 7.62 mm
12:22 -12.8 °C -13.8 °C 33992.1 hPa WNW 46.7 km/h 67.3 km/h 89 % 7.62 mm
12:32 -12.8 °C -13.8 °C 34015.8 hPa WNW 18.2 km/h 67.3 km/h 89 % 7.62 mm
12:37 -12.8 °C -13.9 °C 34015.8 hPa West 33.6 km/h 67.3 km/h 88 % 7.62 mm
12:42 -12.9 °C -13.9 °C 34015.8 hPa NW 23.3 km/h 67.3 km/h 88 % 7.62 mm
12:47 -12.9 °C -14 °C 34015.8 hPa West 36.2 km/h 67.3 km/h 87 % 7.62 mm
12:52 -12.9 °C -13.9 °C 34029.3 hPa WNW 25.9 km/h 62.1 km/h 88 % 7.62 mm
12:57 -12.8 °C -13.9 °C 34029.3 hPa West 33.6 km/h 57 km/h 87 % 7.62 mm
13:02 -12.7 °C -13.8 °C 34039.5 hPa WNW 38.8 km/h 57 km/h 87 % 7.62 mm
13:07 -12.7 °C -13.9 °C 34039.5 hPa WNW 28.5 km/h 54.4 km/h 86 % 7.62 mm
13:12 -12.7 °C -14.2 °C 34039.5 hPa West 44.1 km/h 51.8 km/h 84 % 0 mm
13:17 -12.7 °C -14.2 °C 34039.5 hPa WNW 20.8 km/h 72.6 km/h 84 % 0 mm
13:22 -12.7 °C -14.2 °C 34039.5 hPa West 20.8 km/h 72.6 km/h 84 % 0 mm
13:27 -12.7 °C -14.2 °C 34039.5 hPa West 25.9 km/h 57 km/h 83 % 0 mm
13:32 -12.6 °C -14.1 °C 34049.6 hPa WNW 20.8 km/h 59.5 km/h 83 % 0 mm
13:37 -12.6 °C -14.1 °C 34049.6 hPa West 33.6 km/h 59.5 km/h 83 % 0 mm
13:42 -12.6 °C -14.3 °C 34049.6 hPa WNW 25.9 km/h 69.8 km/h 81 % 0 mm
13:47 -12.6 °C -14.4 °C 34049.6 hPa NW 51.8 km/h 69.8 km/h 80 % 0 mm
13:52 -12.6 °C -14.2 °C 34049.6 hPa WNW 31.1 km/h 69.8 km/h 82 % 0 mm
13:57 -12.6 °C -14.4 °C 34049.6 hPa West 33.6 km/h 57 km/h 80 % 0 mm
14:02 -12.6 °C -14.5 °C 34063.2 hPa WSW 31.1 km/h 64.7 km/h 79 % 0 mm
14:07 -12.6 °C -14.5 °C 34063.2 hPa West 41.4 km/h 64.7 km/h 79 % 0 mm
14:12 -12.6 °C -14.2 °C 34063.2 hPa West 18.2 km/h 64.7 km/h 82 % 0 mm
14:17 -12.6 °C -14.3 °C 34073.3 hPa West 23.3 km/h 57 km/h 81 % 0 mm
14:22 -12.6 °C -14.3 °C 34073.3 hPa West 28.5 km/h 49.2 km/h 81 % 0 mm
14:27 -12.6 °C -14.2 °C 34073.3 hPa WSW 25.9 km/h 51.8 km/h 82 % 0 mm
14:32 -12.6 °C -14.3 °C 34073.3 hPa West 28.5 km/h 51.8 km/h 81 % 0 mm
14:37 -12.6 °C -14.4 °C 34073.3 hPa WNW 38.8 km/h 41.4 km/h 80 % 0 mm
14:42 -12.6 °C -14.6 °C 34086.9 hPa West 18.2 km/h 51.8 km/h 79 % 0 mm
14:57 -12.6 °C -14.5 °C 34086.9 hPa WNW 28.5 km/h 54.4 km/h 79 % 0 mm
15:02 -12.6 °C -14.5 °C 34086.9 hPa WSW 31.1 km/h 54.4 km/h 79 % 0 mm
15:07 -12.5 °C -14.6 °C 34097 hPa WSW 33.6 km/h 46.7 km/h 77 % 0 mm
15:12 -12.5 °C -14.6 °C 34097 hPa SW 10.3 km/h 51.8 km/h 77 % 0 mm
15:17 -12.4 °C -14.4 °C 34097 hPa West 10.3 km/h 51.8 km/h 78 % 0 mm
15:22 -12.4 °C -14.6 °C 34097 hPa WSW 38.8 km/h 51.8 km/h 77 % 0 mm
15:27 -12.4 °C -14.4 °C 34107.2 hPa WNW 28.5 km/h 51.8 km/h 78 % 0 mm
15:32 -12.4 °C -14.4 °C 34107.2 hPa West 28.5 km/h 59.5 km/h 78 % 0 mm
15:37 -12.3 °C -14.4 °C 34107.2 hPa West 59.5 km/h 59.5 km/h 77 % 0 mm
15:42 -12.2 °C -14.3 °C 34120.7 hPa WNW 18.2 km/h 80.3 km/h 77 % 0 mm
15:47 -12.2 °C -14.3 °C 34120.7 hPa WSW 33.6 km/h 80.3 km/h 77 % 0 mm
15:52 -12.3 °C -14.5 °C 34120.7 hPa West 18.2 km/h 80.3 km/h 76 % 0 mm
16:02 -12.4 °C -14.6 °C 34130.9 hPa WNW 20.8 km/h 64.7 km/h 77 % 0 mm
16:07 -12.6 °C -14.6 °C 34144.4 hPa West 51.8 km/h 72.6 km/h 78 % 0 mm
16:12 -12.7 °C -14.6 °C 34130.9 hPa WNW 18.2 km/h 72.6 km/h 79 % 0 mm
16:17 -12.7 °C -14.6 °C 34144.4 hPa WSW 31.1 km/h 62.1 km/h 79 % 0 mm
16:22 -12.7 °C -14.6 °C 34144.4 hPa West 28.5 km/h 62.1 km/h 79 % 0 mm
16:27 -12.7 °C -14.6 °C 34154.6 hPa West 15.6 km/h 54.4 km/h 79 % 0 mm
16:32 -12.7 °C -14.6 °C 34154.6 hPa West 12.9 km/h 46.7 km/h 79 % 0 mm
16:42 -12.7 °C -14.6 °C 34154.6 hPa West 12.9 km/h 36.2 km/h 80 % 0 mm
16:47 -12.7 °C -14.6 °C 34164.7 hPa WSW 12.9 km/h 36.2 km/h 80 % 0 mm
16:52 -12.8 °C -14.4 °C 34178.3 hPa WSW 28.5 km/h 36.2 km/h 82 % 0 mm
16:57 -12.9 °C -14.4 °C 34178.3 hPa West 18.2 km/h 36.2 km/h 83 % 0 mm
17:02 -12.9 °C -14.4 °C 34178.3 hPa West 31.1 km/h 38.8 km/h 83 % 0 mm
17:07 -12.9 °C -14.4 °C 34178.3 hPa WSW 23.3 km/h 38.8 km/h 83 % 0 mm
17:12 -13.1 °C -14.5 °C 34178.3 hPa West 10.3 km/h 46.7 km/h 84 % 0 mm
17:22 -13.1 °C -14.6 °C 34188.4 hPa WSW 23.3 km/h 46.7 km/h 83 % 0 mm
17:32 -13.2 °C -14.6 °C 34198.6 hPa West 5.1 km/h 38.8 km/h 84 % 0 mm
17:37 -13.2 °C -14.6 °C 34198.6 hPa WSW 25.9 km/h 36.2 km/h 85 % 0 mm
17:42 -13.3 °C -14.6 °C 34198.6 hPa SW 7.7 km/h 33.6 km/h 85 % 0 mm
17:47 -13.3 °C -14.7 °C 34198.6 hPa WSW 23.3 km/h 33.6 km/h 85 % 0 mm
17:52 -13.4 °C -14.6 °C 34198.6 hPa WSW 23.3 km/h 33.6 km/h 86 % 0 mm
17:57 -13.3 °C -14.6 °C 34212.1 hPa WSW 20.8 km/h 33.6 km/h 86 % 0 mm
18:02 -13.3 °C -14.5 °C 34212.1 hPa SW 20.8 km/h 28.5 km/h 86 % 0 mm
18:07 -13.2 °C -14.4 °C 34212.1 hPa WSW 25.9 km/h 33.6 km/h 86 % 0 mm
18:12 -13.2 °C -14.4 °C 34222.3 hPa SSW 12.9 km/h 38.8 km/h 86 % 0 mm
18:17 -13.2 °C -14.5 °C 34222.3 hPa West 25.9 km/h 41.4 km/h 85 % 0 mm
18:22 -13.2 °C -14.5 °C 34222.3 hPa West 18.2 km/h 41.4 km/h 85 % 0 mm
18:27 -13.2 °C -14.5 °C 34222.3 hPa WSW 33.6 km/h 41.4 km/h 85 % 0 mm
18:32 -13.2 °C -14.5 °C 34235.8 hPa WSW 7.7 km/h 41.4 km/h 85 % 0 mm
18:37 -13.2 °C -14.6 °C 34235.8 hPa SW 36.2 km/h 41.4 km/h 85 % 0 mm
18:47 -13.2 °C -14.6 °C 34235.8 hPa West 25.9 km/h 41.4 km/h 85 % 0 mm
18:52 -13.3 °C -14.6 °C 34235.8 hPa WSW 20.8 km/h 41.4 km/h 85 % 0 mm
19:02 -13.3 °C -14.6 °C 34235.8 hPa SW 10.3 km/h 36.2 km/h 85 % 0 mm
19:12 -13.4 °C -14.7 °C 34246 hPa WSW 12.9 km/h 36.2 km/h 85 % 0 mm
19:17 -13.4 °C -14.7 °C 34246 hPa SW 10.3 km/h 38.8 km/h 85 % 0 mm
19:22 -13.3 °C -14.7 °C 34246 hPa SW 15.6 km/h 38.8 km/h 85 % 0 mm
19:27 -13.3 °C -14.6 °C 34256.2 hPa WSW 41.4 km/h 49.2 km/h 85 % 0 mm
19:32 -13.3 °C -14.6 °C 34256.2 hPa WSW 12.9 km/h 49.2 km/h 85 % 0 mm
19:42 -13.3 °C -14.6 °C 34256.2 hPa WSW 15.6 km/h 41.4 km/h 85 % 0 mm
19:47 -13.3 °C -14.7 °C 34269.7 hPa SW 15.6 km/h 38.8 km/h 85 % 0 mm
19:52 -13.4 °C -14.7 °C 34269.7 hPa WSW 25.9 km/h 38.8 km/h 85 % 0 mm
19:57 -13.4 °C -14.7 °C 34269.7 hPa WSW 7.7 km/h 28.5 km/h 85 % 0 mm
20:02 -13.4 °C -14.7 °C 34269.7 hPa WSW 12.9 km/h 31.1 km/h 85 % 0 mm
20:07 -13.4 °C -14.7 °C 34269.7 hPa SW 7.7 km/h 31.1 km/h 86 % 0 mm
20:17 -13.4 °C -14.6 °C 34269.7 hPa West 10.3 km/h 28.5 km/h 87 % 0 mm
20:22 -13.4 °C -14.6 °C 34269.7 hPa SW 25.9 km/h 31.1 km/h 87 % 0 mm
20:32 -13.4 °C -14.5 °C 34279.9 hPa WSW 23.3 km/h 33.6 km/h 87 % 0 mm
20:37 -13.4 °C -14.5 °C 34279.9 hPa WNW 15.6 km/h 33.6 km/h 87 % 0 mm
20:42 -13.4 °C -14.5 °C 34279.9 hPa WSW 15.6 km/h 31.1 km/h 87 % 0 mm
20:47 -13.4 °C -14.5 °C 34279.9 hPa WSW 15.6 km/h 31.1 km/h 87 % 0 mm
20:52 -13.4 °C -14.5 °C 34279.9 hPa WSW 20.8 km/h 31.1 km/h 87 % 0 mm
20:57 -13.4 °C -14.5 °C 34279.9 hPa SW 12.9 km/h 33.6 km/h 87 % 0 mm
21:02 -13.4 °C -14.4 °C 34293.4 hPa WSW 5.1 km/h 41.4 km/h 88 % 0 mm
21:12 -13.4 °C -14.5 °C 34279.9 hPa West 15.6 km/h 41.4 km/h 88 % 0 mm
21:17 -13.4 °C -14.5 °C 34293.4 hPa WSW 23.3 km/h 31.1 km/h 88 % 0 mm
21:27 -13.5 °C -14.4 °C 34293.4 hPa West 15.6 km/h 38.8 km/h 89 % 0 mm
21:32 -13.6 °C -14.4 °C 34293.4 hPa SW 20.8 km/h 38.8 km/h 90 % 0 mm
21:37 -13.6 °C -14.5 °C 34293.4 hPa SW 7.7 km/h 33.6 km/h 89 % 0 mm
21:52 -13.6 °C -14.6 °C 34293.4 hPa West 15.6 km/h 31.1 km/h 89 % 0 mm
21:57 -13.6 °C -14.6 °C 34293.4 hPa WSW 15.6 km/h 31.1 km/h 89 % 0 mm
22:07 -13.6 °C -14.6 °C 34293.4 hPa West 20.8 km/h 31.1 km/h 88 % 0 mm
22:12 -13.6 °C -14.6 °C 34293.4 hPa WSW 20.8 km/h 31.1 km/h 88 % 0 mm
22:17 -13.5 °C -14.6 °C 34293.4 hPa West 7.7 km/h 33.6 km/h 88 % 0 mm
22:22 -13.4 °C -14.6 °C 34293.4 hPa West 15.6 km/h 33.6 km/h 87 % 0 mm
22:32 -13.3 °C -14.6 °C 34293.4 hPa WNW 10.3 km/h 51.8 km/h 86 % 0 mm
22:37 -13.4 °C -14.6 °C 34293.4 hPa SW 12.9 km/h 36.2 km/h 86 % 0 mm
22:42 -13.4 °C -14.6 °C 34293.4 hPa WNW 18.2 km/h 36.2 km/h 86 % 0 mm
22:47 -13.4 °C -14.6 °C 34293.4 hPa WSW 7.7 km/h 36.2 km/h 86 % 0 mm
22:52 -13.3 °C -14.6 °C 34293.4 hPa SW 10.3 km/h 36.2 km/h 86 % 0 mm
23:02 -13.3 °C -14.6 °C 34293.4 hPa WSW 33.6 km/h 38.8 km/h 86 % 0 mm
23:07 -13.3 °C -14.5 °C 34293.4 hPa WNW 20.8 km/h 38.8 km/h 86 % 0 mm
23:12 -13.3 °C -14.5 °C 34293.4 hPa SW 15.6 km/h 36.2 km/h 86 % 0 mm
23:17 -13.3 °C -14.5 °C 34293.4 hPa SW 23.3 km/h 38.8 km/h 86 % 0 mm
23:22 -13.3 °C -14.4 °C 34293.4 hPa WSW 20.8 km/h 44.1 km/h 87 % 0 mm
23:27 -13.4 °C -14.5 °C 34293.4 hPa WSW 33.6 km/h 44.1 km/h 87 % 0 mm
23:32 -13.4 °C -14.5 °C 34293.4 hPa WSW 18.2 km/h 44.1 km/h 88 % 0 mm
23:37 -13.4 °C -14.5 °C 34293.4 hPa SW 15.6 km/h 44.1 km/h 88 % 0 mm
23:42 -13.4 °C -14.5 °C 34293.4 hPa WSW 10.3 km/h 38.8 km/h 88 % 0 mm
23:47 -13.4 °C -14.4 °C 34293.4 hPa SW 23.3 km/h 41.4 km/h 89 % 0 mm
23:52 -13.4 °C -14.4 °C 34293.4 hPa WSW 23.3 km/h 41.4 km/h 89 % 0 mm
23:57 -13.4 °C -14.4 °C 34293.4 hPa SW 33.6 km/h 41.4 km/h 89 % 0 mm
Meteo18
Compliments of Weather Underground - 4 mb

Script developed by  Jim McMurry - jmcmurry@mwt.net Adapted for the template by  Wim van der Kuil - Leuven-Template.eu

You find our weather info also at:

European Weather Network

Weather Underground

Equipment we use:

Weather-station
Davis Vue

Weather-program
Meteobridge

Weather-server
Raspberry PI 2 B+

Provider
1 and 1

Davis Vue

Meteobridge

Raspberry PI 2 B+

1 and 1